Torna al catalogo

NORSAT 2

AttivoScienzaSSO
NORAD 42828·PAYLOAD·🇳🇴 Norway

Lanciato Jul 14, 2017 da Baikonur Cosmodrome

Loading…

Prossimi Passaggi (prossime 24 ore)

TLE

AggiornatoSource: Space-Track

Epoca: Sep 14, 2026, 11:10 UTC

1 42828U 17042D   26257.46532758  .00007816  00000-0  33025-3 0  9998
2 42828  97.4105  69.6328 0010525  96.9280 263.3155 15.23465714501327

Traccia NORSAT 2 in tempo reale con AllMySat

Download on the App Store